Weather in zheleznodorozhnaya stantsiya Taltsy

Russia / Novgorod Oblast     59°11′42″N   32°53′15″E
temp.,
°C
wind,
m/s
gust,
m/s
humid.,
%
clouds,
%
prec.,
mm/h
press.,
hPa
HPBL,
m
5 march, fri
fri500:00−6nw389495 0.1 1004513
03:00−7wnw379598 0.3 1005341
06:00−7nw379599 0.3 1006427
09:00−7nnw379199 0.4 1008618
12:00−5nw3584100 0.2 1009652
15:00−4wnw4577100 0.4 1011923
18:00−6nw2691100 0.1 1012350
21:00−7nnw2694100 0.5 1014414
6 march, sat
sat600:00−8nw259796 0.1 1015227
03:00−10wnw229894 0.2 101657
06:00−10w229893 0.1 101654
09:00−9wsw259582 0.1 1016240
12:00−4wsw367862 0.0 1014695
15:00−3sw596845 0.0 10111259
18:00−4ssw51270100 0.0 10061050
21:00−4sw71591100 0.6 10011235
7 march, sun
sun700:00−2sw71593100 2.1 9941275
03:00−2sw71593100 3.6 9911187
06:00−5w2888100 2.1 989704
09:00−8wnw3107987 2.1 989829
12:00−6wnw3660100 0.1 9921803
15:00−6w2472100 0.2 992935
18:00−7n1291100 0.4 99263
21:00−10n259199 0.6 994163
8 march, mon
mon800:00−14nnw229332 0.0 99521
03:00−12wnw399357 0.0 998297
06:00−10nnw51092100 0.8 1000733
09:00−11nnw51091100 1.3 1003758
12:00−11nnw5887100 0.2 1006689
15:00−12nnw5886100 0.3 1009639
18:00−13nnw4891100 0.1 1011604
21:00−15nnw3895100 0.1 1014380
9 march, tue
tue900:00−17nnw259999 0.0 1015152
03:00−20nnw129980 0.1 101620
06:00−21n019954 0.0 101720
09:00−19e119545 0.0 101770
12:00−13se127699 0.0 1016372
15:00−11e2374100 0.0 1016473
18:00−12ne2587100 0.0 1016240
21:00−17ene249476 0.0 101886